Location: Chmeln�
(49.6483°N, 14.9871°E)
Time: 23:25:38
(UTC+00:00)

Cosmos 1975 Rocket - Pass Details

Date: 18 September 2020
Orbit: 603 x 634 km, 82.5° (Epoch: 31 October)

Event Time Altitude Azimuth Distance (km) Brightness Sun altitude
Rises 17:27:21 0° 354° (N) 2,886 6.7 -4.3°
Reaches altitude 10° 17:29:40 10° 1° (N) 1,973 5.8 -4.6°
Maximum altitude 17:33:52 46° 75° (ENE) 820 3.3 -5.3°
Drops below altitude 10° 17:38:01 10° 149° (SSE) 1,948 5.2 -6.0°
Sets 17:40:17 0° 156° (SSE) 2,845 6.1 -6.3°
